Погода в Блек Рок

Тринидад и Тобаго     11°12′11″N   60°46′41″W
темп.,
°C
ветер,
м/с
пор.,
м/с
влажн.,
%
обл.,
%
осадки,
мм/ч
давл.,
гПа
погр.,
м
22 апреля, чт
чт2223:00+27в88761 0.1 1015961
02:00+26в997710 0.1 1013919
05:00+27в99744 0.3 10141017
08:00+27в1010712 0.4 10161099
11:00+27в99704 0.0 10161234
14:00+27в89690 0.0 10131123
17:00+27в89737 0.1 10121104
20:00+27в910768 0.1 1013997
23 апреля, пт
пт2323:00+27в9107650 0.1 10151021
02:00+27всв99779 0.4 1013953
05:00+26в897813 0.8 1014915
08:00+27в897811 0.9 1015953
11:00+27в897816 0.3 1015911
14:00+27в897865 0.5 1012901
17:00+27в897822 0.3 1012875
20:00+27в9107813 0.8 1014927
24 апреля, сб
сб2423:00+27всв9107722 0.2 1014960
02:00+27в9107926 0.3 1013933
05:00+26в9107713 0.4 1013929
08:00+27в9107810 0.5 1015934
11:00+27в89757 0.1 1015974
14:00+27в887656 0.1 1013934
17:00+27всв897679 0.1 1012953
20:00+27всв99785 0.1 1013953
25 апреля, вс
вс2523:00+27всв997772 0.1 1014919
02:00+27в997397 0.1 1012963
05:00+27всв897853 0.0 1013931
08:00+27всв9107573 0.3 10141013
11:00+27всв9975100 0.0 1015948
14:00+27всв8873100 0.1 10121007
17:00+27всв8973100 0.0 10111090
20:00+27всв897945 0.1 1013907
26 апреля, пн
пн2623:00+27в99785 0.2 1013890
02:00+26в898078 0.3 1012833
05:00+26всв888017 0.1 1012796
08:00+27всв897631 0.3 1013944
11:00+27всв897814 0.1 1014899
14:00+26всв897996 0.4 1011858
17:00+27всв997651 0.2 1010943
20:00+27всв9976100 0.3 1012936